Вернуться в каталог

TDRS 8

АктивенСвязьGEO
NORAD 26388·PAYLOAD·🇺🇸 United States

Запущен Jun 30, 2000 с Cape Canaveral Space Force Station

Loading…

TLE

СвежийSource: Space-Track

Эпоха: Sep 14, 2026, 09:04 UTC

1 26388U 00034A   26257.37811848 -.00000201  00000-0  00000-0 0  9990
2 26388  12.8227  30.5464 0001424 107.4180  76.3488  1.00271001 96075

Отслеживайте TDRS 8 в реальном времени с AllMySat

Download on the App Store